EW1895 Weather Reports


time (UTC)temp
C
wind
direction
speed
KPH
gust
KPH
rain 1hr
cm
rain 24hr
cm
rain mn
cm
humidity
%
barometer
mb
20260502214527 16 62 0.0 4.8 0.00 0.00 0.00 42 1011.9
20260502211526 17 154 0.0 6.4 0.00 0.00 0.00 37 1011.9
20260502210025 17 57 0.0 4.8 0.00 0.00 0.00 37 1011.7
20260502204526 17 346 0.0 6.4 0.00 0.00 0.00 36 1011.9
20260502201624 17 346 0.0 4.8 0.00 0.00 0.00 37 1012.1
20260502200024 18 346 0.0 6.4 0.00 0.00 0.00 36 1011.9
20260502194524 18 346 0.0 4.8 0.00 0.00 0.00 36 1012.1
20260502191523 17 11 1.6 8.0 0.00 0.00 0.00 39 1012.5
20260502190027 16 171 0.0 6.4 0.00 0.00 0.00 40 1012.6
20260502184522 17 347 0.0 1.6 0.00 0.00 0.00 38 1012.8
20260502181521 17 305 0.0 9.7 0.00 0.00 0.00 38 1013.2
20260502161519 13 350 0.0 4.8 0.00 0.00 0.00 46 1014.8
20260502151516 13 340 0.0 6.4 0.00 0.00 0.00 49 1015.0
20260502121505 10 349 1.6 6.4 0.00 0.00 0.00 71 1014.2
20260502114504 9 327 0.0 0.0 0.00 0.00 0.00 78 1014.0
20260502111502 9 326 0.0 1.6 0.00 0.00 0.00 81 1014.1
20260502110002 8 15 0.0 8.0 0.00 0.00 0.00 82 1014.2
20260502104500 8 346 0.0 4.8 0.00 0.00 0.00 84 1014.0
20260502101604 8 5 0.0 0.0 0.00 0.00 0.00 87 1013.7
20260502070045 9 234 0.0 0.0 0.00 0.00 0.00 84 1012.7
20260502064546 10 234 0.0 0.0 0.00 0.00 0.00 83 1012.8
20260502061539 10 234 0.0 0.0 0.00 0.00 0.00 81 1012.9
20260502060037 11 234 0.0 0.0 0.00 0.00 0.00 80 1012.9
20260502054535 11 234 0.0 0.0 0.00 0.00 0.00 79 1013.1
20260502051534 11 234 0.0 0.0 0.00 0.00 0.00 76 1013.1
20260502050034 12 234 0.0 0.0 0.00 0.00 0.00 74 1012.8
20260502044526 12 203 0.0 0.0 0.00 0.00 0.00 73 1012.8
20260502041527 12 248 0.0 1.6 0.00 0.00 0.00 71 1012.8
20260502040022 12 255 0.0 8.0 0.00 0.00 0.00 70 1012.8
20260502034522 13 181 0.0 1.6 0.00 0.00 0.00 69 1012.7
20260502031517 13 138 0.0 0.0 0.00 0.00 0.00 67 1012.6
20260502030024 13 138 0.0 1.6 0.00 0.00 0.00 65 1012.4
20260502024513 13 164 0.0 6.4 0.00 0.00 0.00 64 1012.2
20260502021511 13 182 0.0 3.2 0.00 0.00 0.00 60 1012.3
20260502020008 13 197 0.0 0.0 0.00 0.00 0.00 58 1012.2
20260502014506 14 198 0.0 1.6 0.00 0.00 0.00 57 1012.2
20260502011600 15 204 0.0 0.0 0.00 0.00 0.00 55 1011.8
20260502010106 15 204 0.0 1.6 0.00 0.00 0.00 55 1011.7
20260502004604 15 215 0.0 1.6 0.00 0.00 0.00 54 1011.4
20260502003151 15 201 0.0 0.0 0.00 0.00 0.00 53 1011.0
20260502001548 16 140 0.0 0.0 0.00 0.00 0.00 50 1011.1
20260502000045 16 140 0.0 1.6 0.00 0.00 0.00 48 1011.0
20260501234542 17 343 0.0 0.0 0.00 0.00 0.00 47 1010.9
20260501233139 17 343 0.0 0.0 0.00 0.00 0.00 46 1010.8
20260501231537 17 343 0.0 1.6 0.00 0.00 0.00 43 1010.8
20260501230035 18 196 0.0 6.4 0.00 0.00 0.00 42 1010.8
20260501224530 18 129 0.0 4.8 0.00 0.00 0.00 40 1010.9
20260501223127 18 192 0.0 11.3 0.00 0.00 0.00 36 1011.0
20260501221527 19 221 0.0 8.0 0.00 0.00 0.00 36 1011.1
20260501220124 19 193 0.0 3.2 0.00 0.00 0.00 36 1011.2